Showing default

CONNECTA T3.1, 58256

Orbit data source: Space-Track

CONNECTA T3.1, 58256 is a payload satellite owned by Plan-S (TR) in SSO that was launched on Sat, 11 Nov 2023 UTC via an FALCON 9 launch vehicle from the Air Force Western Test Range (AFWTR). Payloads include a variety of satellites, spacecraft, and rockets equipped with specific instruments for various scientific and technological missions. These include communications satellites like Starlink; space stations such as the ISS; scientific satellites like the Hubble; Earth observation satellites from companies like Planet Labs, Umbra, and HawkEye 360; GPS; miniature CubeSats for education and research; and military/defense satellites.

Loading next visibility...
Last TLE update19 hours ago
ManufacturerPlan-S
MissionOperational Commercial Communications
Bus & MotorCUBESAT 3U, Unknown motor
Mass5 kg wet, 5 kg dry
Shape & HBRBox + 2 Pan, 0.3 m
Radar Cross Section0.080 m², Small (<0.1 m²)

Expand to show TLE details & history

TLE from 19 hours ago
0 CONNECTA T3.1
1 58256U 23174A   25066.47412719  .00034136  00000-0  84661-3 0  9992
2 58256  97.4172 146.3774 0005354  42.1532 318.0125 15.40286904 73902
Epoch: 2025-03-07T11:22Z
Definitive object data (Epoch: 2025-03-07T11:22:44.589Z)
Latitude-0.00001°
Longitude170.25764°
Altitude445.664 km
Speed7.646 km/s
True Right ascension09h 45m 30s
True Declination0° 00' 00"
Sunlit
Object was in full shadow at TLE epoch
Visualization TLE readout
Latitude-24.16318°
Longitude174.3734°
Altitude452.656 km
Speed7.641 km/s
Apparent Right ascension09h 56m 56s
Apparent Declination-78° 57' 17"
Sunlit
Object is in full shadow
Visualization observer readout
Local Sidereal Time10:03:20
Azimuth180.35° SSW
Elevation-28.875°
Doppler factor1
Orbital elements
Apogee altitude445.853 km
Perigee altitude438.55 km
Semi-major axis6,820.338 km
Eccentricity0.0005354
Inclination97.4172°
RAAN146.3774°
Arg. of periapsis42.1532°
True anomaly317.97144°
Mean anomaly318.0125°
Eccentric anomaly317.99197°
Mean motion3.85331 °/min
BSTAR0.00084661
Orbital period93.43 mins
Loading maneuver chart data...
Loading historical data...
Loading historical data...
Loading historical data...
Loading historical data...
Loading historical data...
Loading historical data...
Loading historical data...

CONNECTA T3.1 Visibility forecast

Observer location: undefined°, undefined

Span
Click to sort rows by Start time (UTC) header in descending order
Start Az.
Max El. time (UTC)
Max El. Az.
Max El.
End time (UTC)
End Az.
4 mins2025-03-08 17:35:01.463Z51.422° ENE2025-03-08 17:37:01.463Z110.169° ESE25.207°2025-03-08 17:39:01.463Z153.729° SSE
4 mins2025-03-09 05:37:01.463Z198.926° SSW2025-03-09 05:39:01.463Z277.279° WNW34.423°2025-03-09 05:41:01.463Z328.677° NNW
|